Oxnard, CA

1:25 AM PST on November 18, 2017 (GMT -0800)
Oxnard

Weather History for KOXR - December, 2013

Change the Weather History Date:

Sunday, December 29, 2013

  Actual Average Record
Temperature  
Mean Temperature 57 °F -  
Max Temperature 75 °F 64 °F 82 °F (2016)
Min Temperature 39 °F 44 °F 34 °F (1954)
Degree Days  
Heating Degree Days 8    
Growing Degree Days 7 (Base 50)    
Moisture  
Dew Point 22 °F    
Average Humidity 34    
Maximum Humidity 74    
Minimum Humidity 8    
Precipitation  
Precipitation 0.00 in - - ()
Sea Level Pressure  
Sea Level Pressure 30.07 in    
Wind  
Wind Speed 6 mph (NE)    
Max Wind Speed 24 mph    
Max Gust Speed 32 mph    
Visibility 10 miles    
Events      
Averages and records for this station are not official NWS values.
T = Trace of Precipitation, MM = Missing Value Source: NWS Daily Summary

Daily Weather History Graph

Daily Weather History Graph

Search for Another Location

Airport or City:

Trip Planner

Search our weather history database for the weather conditions in past years. The results will help you decide how hot, cold, wet, or windy it might be!

Date:

Astronomy

Dec. 29, 2013 Rise Set
Actual Time 7:02 AM PST 4:56 PM PST
Civil Twilight 6:34 AM PST 5:23 PM PST
Nautical Twilight 6:03 AM PST 5:55 PM PST
Astronomical Twilight 5:32 AM PST 6:25 PM PST
Moon 3:54 AM PST (12/29) 2:35 PM PST (12/29)
Length of Visible Light 10h 49m
Length of Day
9h 54m
Waning Crescent, 10% of the Moon is Illuminated
Dec 29
Waning Crescent
Jan 1
New
Jan 7
First Quarter
Jan 15
Full
Jan 23
Last Quarter

Hourly Weather History & Observations

Time (PST) Temp. Windchill Dew Point Humidity Pressure Visibility Wind Dir Wind Speed Gust Speed Precip Events Conditions
12:51 AM 46.9 °F - 37.0 °F 68% 30.01 in 10.0 mi Calm Calm - N/A   Clear
1:51 AM 44.1 °F 41.5 °F 36.0 °F 73% 30.02 in 10.0 mi NE 4.6 mph - N/A   Clear
2:51 AM 43.0 °F - 35.1 °F 74% 30.02 in 10.0 mi Calm Calm - N/A   Clear
3:51 AM 41.0 °F - 33.1 °F 73% 30.01 in 10.0 mi Calm Calm - N/A   Clear
4:51 AM 39.9 °F - 30.9 °F 70% 30.01 in 10.0 mi Calm Calm - N/A   Clear
5:51 AM 39.9 °F - 30.0 °F 68% 30.03 in 10.0 mi Calm Calm - N/A   Clear
6:51 AM 41.0 °F 39.0 °F 28.9 °F 62% 30.04 in 10.0 mi Variable 3.5 mph - N/A   Clear
7:51 AM 53.1 °F - 26.1 °F 35% 30.06 in 10.0 mi NE 8.1 mph - N/A   Clear
8:51 AM 64.0 °F - 21.0 °F 19% 30.08 in 10.0 mi ENE 9.2 mph - N/A   Clear
9:51 AM 69.1 °F - 17.1 °F 14% 30.08 in 10.0 mi East 21.9 mph 29.9 mph N/A   Clear
10:51 AM 72.0 °F - 17.1 °F 12% 30.09 in 10.0 mi ENE 16.1 mph - N/A   Clear
11:51 AM 73.0 °F - 12.0 °F 10% 30.06 in 10.0 mi East 24.2 mph 31.1 mph N/A   Clear
12:51 PM 75.0 °F - 12.0 °F 9% 30.04 in 10.0 mi East 24.2 mph 32.2 mph N/A   Clear
1:51 PM 75.9 °F - 10.0 °F 8% 30.04 in 10.0 mi East 18.4 mph 28.8 mph N/A   Clear
2:51 PM 75.0 °F - 10.0 °F 8% 30.04 in 10.0 mi ENE 12.7 mph 23.0 mph N/A   Clear
3:51 PM 73.9 °F - 9.0 °F 8% 30.06 in 10.0 mi East 16.1 mph 20.7 mph N/A   Clear
4:51 PM 70.0 °F - 10.0 °F 10% 30.06 in 10.0 mi ENE 12.7 mph - N/A   Clear
5:51 PM 64.9 °F - 14.0 °F 14% 30.09 in 10.0 mi North 6.9 mph - N/A   Clear
6:51 PM 55.9 °F - 43.0 °F 62% 30.11 in 10.0 mi NNW 5.8 mph - N/A   Clear
7:51 PM 57.9 °F - 27.0 °F 31% 30.12 in 10.0 mi NNE 3.5 mph - N/A   Clear
8:51 PM 55.0 °F - 19.9 °F 25% 30.12 in 10.0 mi Calm Calm - N/A   Clear
9:51 PM 55.9 °F - 16.0 °F 21% 30.13 in 10.0 mi NNE 6.9 mph - N/A   Clear
10:51 PM 57.0 °F - 14.0 °F 18% 30.14 in 10.0 mi ENE 4.6 mph - N/A   Clear
11:51 PM 57.0 °F - 12.0 °F 17% 30.14 in 10.0 mi NE 6.9 mph - N/A   Clear